Time,TemperatureF,DewpointF,PressureIn,WindDirection,WindDirectionDegrees,WindSpeedMPH,WindSpeedGustMPH,Humidity,HourlyPrecipIn,Conditions,Clouds,dailyrainin,SolarRadiationWatts/m^2,SoftwareType,DateUTC
2013-08-02 00:01:00,56.0,51.9,30.12,SW,222,0.0,0.0,86,0.00,,,0.00,0,LWC V2.00 B727,2013-08-02 06:01:00,
2013-08-02 00:06:00,55.8,51.7,30.12,SW,222,0.0,0.0,86,0.00,,,0.00,0,LWC V2.00 B727,2013-08-02 06:06:00,
2013-08-02 00:11:00,55.6,51.8,30.12,SW,223,0.0,0.0,87,0.00,,,0.00,0,LWC V2.00 B727,2013-08-02 06:11:00,
2013-08-02 00:16:00,55.4,51.6,30.11,SW,223,0.0,0.0,87,0.00,,,0.00,0,LWC V2.00 B727,2013-08-02 06:16:00,
2013-08-02 00:21:00,55.3,51.5,30.11,SW,222,0.0,0.0,87,0.00,,,0.00,0,LWC V2.00 B727,2013-08-02 06:21:00,
2013-08-02 00:26:00,55.1,51.3,30.11,SW,223,0.0,0.0,87,0.00,,,0.00,0,LWC V2.00 B727,2013-08-02 06:26:00,
2013-08-02 00:31:00,55.0,51.2,30.11,SW,222,0.0,0.0,87,0.00,,,0.00,0,LWC V2.00 B727,2013-08-02 06:31:00,
2013-08-02 00:36:00,54.8,51.0,30.11,SW,223,0.0,0.0,87,0.00,,,0.00,0,LWC V2.00 B727,2013-08-02 06:36:00,
2013-08-02 00:41:00,54.6,50.8,30.10,SW,222,0.0,0.0,87,0.00,,,0.00,0,LWC V2.00 B727,2013-08-02 06:41:00,
2013-08-02 00:46:00,54.4,50.9,30.10,SW,223,0.0,0.0,88,0.00,,,0.00,0,LWC V2.00 B727,2013-08-02 06:46:00,
2013-08-02 00:51:00,54.2,50.7,30.10,SW,223,0.0,2.0,88,0.00,,,0.00,0,LWC V2.00 B727,2013-08-02 06:51:00,
2013-08-02 00:56:00,54.1,50.6,30.09,SW,222,0.0,1.0,88,0.00,,,0.00,0,LWC V2.00 B727,2013-08-02 06:56:00,
2013-08-02 01:01:00,54.0,50.8,30.09,SW,222,0.0,0.0,89,0.00,,,0.00,0,LWC V2.00 B727,2013-08-02 07:01:00,
2013-08-02 01:06:00,53.9,50.7,30.09,SW,223,0.0,0.0,89,0.00,,,0.00,0,LWC V2.00 B727,2013-08-02 07:06:00,
2013-08-02 01:11:00,53.9,50.7,30.09,SW,222,0.0,0.0,89,0.00,,,0.00,0,LWC V2.00 B727,2013-08-02 07:11:00,
2013-08-02 01:16:00,53.9,50.7,30.09,SW,222,0.0,0.0,89,0.00,,,0.00,0,LWC V2.00 B727,2013-08-02 07:16:00,
2013-08-02 01:21:00,53.8,50.6,30.09,SW,222,0.0,0.0,89,0.00,,,0.00,0,LWC V2.00 B727,2013-08-02 07:21:00,
2013-08-02 01:26:00,53.7,50.5,30.09,SW,223,0.0,0.0,89,0.00,,,0.00,0,LWC V2.00 B727,2013-08-02 07:26:00,
2013-08-02 01:31:00,53.6,50.4,30.09,SW,222,0.0,0.0,89,0.00,,,0.00,0,LWC V2.00 B727,2013-08-02 07:31:00,
2013-08-02 01:36:00,53.5,50.3,30.09,SW,223,0.0,0.0,89,0.00,,,0.00,0,LWC V2.00 B727,2013-08-02 07:36:00,
2013-08-02 01:41:00,53.3,50.1,30.09,SW,223,0.0,0.0,89,0.00,,,0.00,0,LWC V2.00 B727,2013-08-02 07:41:00,
2013-08-02 01:46:00,53.2,50.0,30.09,SW,222,0.0,0.0,89,0.00,,,0.00,0,LWC V2.00 B727,2013-08-02 07:46:00,
2013-08-02 01:51:00,53.1,49.9,30.09,SW,222,1.0,1.0,89,0.00,,,0.00,0,LWC V2.00 B727,2013-08-02 07:51:00,
2013-08-02 01:56:00,53.1,50.2,30.09,SW,223,0.0,0.0,90,0.00,,,0.00,0,LWC V2.00 B727,2013-08-02 07:56:00,
2013-08-02 02:01:00,53.0,50.1,30.09,SW,223,0.0,0.0,90,0.00,,,0.00,0,LWC V2.00 B727,2013-08-02 08:01:00,
2013-08-02 02:06:00,52.9,50.0,30.09,SW,222,0.0,0.0,90,0.00,,,0.00,0,LWC V2.00 B727,2013-08-02 08:06:00,
2013-08-02 02:11:00,52.9,50.0,30.09,SW,223,0.0,0.0,90,0.00,,,0.00,0,LWC V2.00 B727,2013-08-02 08:11:00,
2013-08-02 02:16:00,52.8,49.9,30.09,SW,223,0.0,0.0,90,0.00,,,0.00,0,LWC V2.00 B727,2013-08-02 08:16:00,
2013-08-02 02:21:00,52.7,49.8,30.09,SW,222,0.0,0.0,90,0.00,,,0.00,0,LWC V2.00 B727,2013-08-02 08:21:00,
2013-08-02 02:26:00,52.7,49.8,30.09,SW,223,0.0,0.0,90,0.00,,,0.00,0,LWC V2.00 B727,2013-08-02 08:26:00,
2013-08-02 02:31:00,52.6,49.8,30.09,SW,223,0.0,0.0,90,0.00,,,0.00,0,LWC V2.00 B727,2013-08-02 08:31:00,
2013-08-02 02:36:00,52.6,49.8,30.09,SW,223,0.0,1.0,90,0.00,,,0.00,0,LWC V2.00 B727,2013-08-02 08:36:00,
2013-08-02 02:41:00,52.7,49.8,30.09,SW,222,0.0,0.0,90,0.00,,,0.00,0,LWC V2.00 B727,2013-08-02 08:41:00,
2013-08-02 02:46:00,52.8,50.2,30.09,SW,223,0.0,0.0,91,0.00,,,0.00,0,LWC V2.00 B727,2013-08-02 08:46:00,
2013-08-02 02:51:00,52.9,50.3,30.08,SW,223,0.0,0.0,91,0.00,,,0.00,0,LWC V2.00 B727,2013-08-02 08:51:00,
2013-08-02 02:56:00,53.0,50.4,30.08,SW,222,0.0,0.0,91,0.00,,,0.00,0,LWC V2.00 B727,2013-08-02 08:56:00,
2013-08-02 03:01:00,53.0,50.4,30.08,SW,223,0.0,0.0,91,0.00,,,0.00,0,LWC V2.00 B727,2013-08-02 09:01:00,
2013-08-02 03:06:00,53.1,50.5,30.08,SW,223,0.0,1.0,91,0.00,,,0.00,0,LWC V2.00 B727,2013-08-02 09:06:00,
2013-08-02 03:11:00,53.2,50.6,30.09,SW,223,0.0,0.0,91,0.00,,,0.00,0,LWC V2.00 B727,2013-08-02 09:11:00,
2013-08-02 03:16:00,53.3,50.7,30.08,SW,223,0.0,2.0,91,0.00,,,0.00,0,LWC V2.00 B727,2013-08-02 09:16:00,
2013-08-02 03:21:00,53.4,50.8,30.09,SW,223,0.0,0.0,91,0.00,,,0.00,0,LWC V2.00 B727,2013-08-02 09:21:00,
2013-08-02 03:26:00,53.5,50.9,30.09,SW,223,0.0,1.0,91,0.00,,,0.00,0,LWC V2.00 B727,2013-08-02 09:26:00,
2013-08-02 03:31:00,53.6,51.0,30.09,SW,222,0.0,0.0,91,0.00,,,0.00,0,LWC V2.00 B727,2013-08-02 09:31:00,
2013-08-02 03:36:00,53.7,51.1,30.08,SW,223,0.0,1.0,91,0.00,,,0.00,0,LWC V2.00 B727,2013-08-02 09:36:00,
2013-08-02 03:41:00,53.9,51.3,30.08,SW,223,0.0,1.0,91,0.00,,,0.00,0,LWC V2.00 B727,2013-08-02 09:41:00,
2013-08-02 03:46:00,54.1,51.5,30.08,South,191,0.0,2.0,91,0.00,,,0.00,0,LWC V2.00 B727,2013-08-02 09:46:00,
2013-08-02 03:51:00,54.2,51.6,30.08,SSW,192,0.0,0.0,91,0.00,,,0.00,0,LWC V2.00 B727,2013-08-02 09:51:00,
2013-08-02 03:56:00,54.2,51.6,30.09,South,191,0.0,0.0,91,0.00,,,0.00,0,LWC V2.00 B727,2013-08-02 09:56:00,
2013-08-02 04:01:00,54.3,51.7,30.09,SSW,192,0.0,0.0,91,0.00,,,0.00,0,LWC V2.00 B727,2013-08-02 10:01:00,
2013-08-02 04:06:00,54.4,51.8,30.08,South,191,0.0,0.0,91,0.00,,,0.00,0,LWC V2.00 B727,2013-08-02 10:06:00,
2013-08-02 04:11:00,54.4,51.8,30.08,SSW,192,0.0,0.0,91,0.00,,,0.00,0,LWC V2.00 B727,2013-08-02 10:11:00,
2013-08-02 04:16:00,54.5,51.9,30.08,SSW,192,0.0,0.0,91,0.00,,,0.00,0,LWC V2.00 B727,2013-08-02 10:16:00,
2013-08-02 04:21:00,54.5,51.9,30.08,SSW,192,0.0,0.0,91,0.00,,,0.00,0,LWC V2.00 B727,2013-08-02 10:21:00,
2013-08-02 04:26:00,54.6,52.0,30.08,South,191,0.0,0.0,91,0.00,,,0.00,0,LWC V2.00 B727,2013-08-02 10:26:00,
2013-08-02 04:31:00,54.6,52.0,30.08,SSW,192,0.0,0.0,91,0.00,,,0.00,0,LWC V2.00 B727,2013-08-02 10:31:00,
2013-08-02 04:36:00,54.6,51.7,30.08,SSW,192,0.0,0.0,90,0.00,,,0.00,0,LWC V2.00 B727,2013-08-02 10:36:00,
2013-08-02 04:41:00,54.6,51.7,30.07,South,191,0.0,0.0,90,0.00,,,0.00,0,LWC V2.00 B727,2013-08-02 10:41:00,
2013-08-02 04:46:00,54.5,51.6,30.07,SSW,192,0.0,0.0,90,0.00,,,0.00,0,LWC V2.00 B727,2013-08-02 10:46:00,
2013-08-02 04:51:00,54.3,51.1,30.07,SSW,192,0.0,0.0,89,0.00,,,0.00,0,LWC V2.00 B727,2013-08-02 10:51:00,
2013-08-02 04:56:00,54.1,50.9,30.08,SSW,192,0.0,0.0,89,0.00,,,0.00,0,LWC V2.00 B727,2013-08-02 10:56:00,
2013-08-02 05:01:00,54.0,50.8,30.08,SSW,192,0.0,1.0,89,0.00,,,0.00,0,LWC V2.00 B727,2013-08-02 11:01:00,
2013-08-02 05:06:00,53.9,50.7,30.08,SSW,192,0.0,0.0,89,0.00,,,0.00,0,LWC V2.00 B727,2013-08-02 11:06:00,
2013-08-02 05:11:00,53.8,50.3,30.08,SSW,192,0.0,0.0,88,0.00,,,0.00,0,LWC V2.00 B727,2013-08-02 11:11:00,
2013-08-02 05:16:00,53.6,50.1,30.08,South,191,0.0,0.0,88,0.00,,,0.00,0,LWC V2.00 B727,2013-08-02 11:16:00,
2013-08-02 05:21:00,53.5,50.0,30.08,SSW,192,0.0,0.0,88,0.00,,,0.00,0,LWC V2.00 B727,2013-08-02 11:21:00,
2013-08-02 05:26:00,53.2,49.4,30.09,SSW,192,0.0,0.0,87,0.00,,,0.00,0,LWC V2.00 B727,2013-08-02 11:26:00,
2013-08-02 05:31:00,52.9,48.8,30.09,SSW,192,0.0,0.0,86,0.00,,,0.00,0,LWC V2.00 B727,2013-08-02 11:31:00,
2013-08-02 05:36:00,52.6,48.5,30.09,SSW,192,0.0,0.0,86,0.00,,,0.00,0,LWC V2.00 B727,2013-08-02 11:36:00,
2013-08-02 05:41:00,52.3,48.2,30.09,SSW,192,0.0,0.0,86,0.00,,,0.00,0,LWC V2.00 B727,2013-08-02 11:41:00,
2013-08-02 05:46:00,52.1,48.7,30.10,South,191,0.0,2.0,88,0.00,,,0.00,0,LWC V2.00 B727,2013-08-02 11:46:00,
2013-08-02 05:51:00,52.1,49.0,30.10,SSW,192,0.0,1.0,89,0.00,,,0.00,0,LWC V2.00 B727,2013-08-02 11:51:00,
2013-08-02 05:56:00,52.2,49.4,30.10,SSW,192,0.0,1.0,90,0.00,,,0.00,0,LWC V2.00 B727,2013-08-02 11:56:00,
2013-08-02 06:01:00,52.4,49.6,30.10,SSW,192,0.0,0.0,90,0.00,,,0.00,0,LWC V2.00 B727,2013-08-02 12:01:00,
2013-08-02 06:06:00,52.6,49.8,30.10,South,191,0.0,0.0,90,0.00,,,0.00,0,LWC V2.00 B727,2013-08-02 12:06:00,
2013-08-02 06:11:00,52.8,49.9,30.10,SSW,192,0.0,0.0,90,0.00,,,0.00,0,LWC V2.00 B727,2013-08-02 12:11:00,
2013-08-02 06:16:00,52.9,50.3,30.11,South,191,0.0,0.0,91,0.00,,,0.00,5,LWC V2.00 B727,2013-08-02 12:16:00,
2013-08-02 06:21:00,53.0,50.4,30.11,SSW,192,0.0,0.0,91,0.00,,,0.00,9,LWC V2.00 B727,2013-08-02 12:21:00,
2013-08-02 06:26:00,53.1,50.5,30.11,South,191,0.0,0.0,91,0.00,,,0.00,14,LWC V2.00 B727,2013-08-02 12:26:00,
2013-08-02 06:31:00,53.2,50.6,30.11,SSW,192,0.0,0.0,91,0.00,,,0.00,12,LWC V2.00 B727,2013-08-02 12:31:00,
2013-08-02 06:36:00,53.3,50.7,30.11,SSW,192,0.0,0.0,91,0.00,,,0.00,12,LWC V2.00 B727,2013-08-02 12:36:00,
2013-08-02 06:41:00,53.3,50.7,30.12,South,191,0.0,0.0,91,0.00,,,0.00,14,LWC V2.00 B727,2013-08-02 12:41:00,
2013-08-02 06:46:00,53.5,50.9,30.12,South,191,0.0,0.0,91,0.00,,,0.00,12,LWC V2.00 B727,2013-08-02 12:46:00,
2013-08-02 06:51:00,53.7,51.1,30.12,South,191,0.0,0.0,91,0.00,,,0.00,9,LWC V2.00 B727,2013-08-02 12:51:00,
2013-08-02 06:56:00,54.1,51.5,30.12,South,191,0.0,1.0,91,0.00,,,0.00,11,LWC V2.00 B727,2013-08-02 12:56:00,
2013-08-02 07:01:00,54.5,51.9,30.12,South,191,0.0,0.0,91,0.00,,,0.00,14,LWC V2.00 B727,2013-08-02 13:01:00,
2013-08-02 07:06:00,54.7,52.1,30.12,SSW,192,0.0,0.0,91,0.00,,,0.00,19,LWC V2.00 B727,2013-08-02 13:06:00,
2013-08-02 07:11:00,54.8,52.2,30.12,SSW,192,0.0,0.0,91,0.00,,,0.00,26,LWC V2.00 B727,2013-08-02 13:11:00,
2013-08-02 07:16:00,54.9,52.3,30.12,SSW,192,0.0,1.0,91,0.00,,,0.00,40,LWC V2.00 B727,2013-08-02 13:16:00,
2013-08-02 07:21:00,55.1,52.5,30.12,SSW,192,0.0,1.0,91,0.00,,,0.00,44,LWC V2.00 B727,2013-08-02 13:21:00,
2013-08-02 07:26:00,55.3,52.7,30.12,SSW,192,0.0,0.0,91,0.00,,,0.00,69,LWC V2.00 B727,2013-08-02 13:26:00,
2013-08-02 07:31:00,55.5,52.9,30.12,South,191,0.0,0.0,91,0.00,,,0.00,109,LWC V2.00 B727,2013-08-02 13:31:00,
2013-08-02 07:36:00,55.8,53.2,30.11,South,191,0.0,0.0,91,0.00,,,0.00,134,LWC V2.00 B727,2013-08-02 13:36:00,
2013-08-02 07:41:00,56.1,53.5,30.11,South,191,0.0,0.0,91,0.00,,,0.00,155,LWC V2.00 B727,2013-08-02 13:41:00,
2013-08-02 07:46:00,56.5,53.9,30.11,SSW,192,0.0,0.0,91,0.00,,,0.00,272,LWC V2.00 B727,2013-08-02 13:46:00,
2013-08-02 07:51:00,57.0,54.7,30.11,SSW,192,0.0,1.0,92,0.00,,,0.00,448,LWC V2.00 B727,2013-08-02 13:51:00,
2013-08-02 07:53:00,57.3,55.0,30.11,SSW,192,0.0,0.0,92,0.00,,,0.00,230,LWC V2.00 B727,2013-08-02 13:53:00,
2013-08-02 07:58:00,57.9,55.3,30.12,SSW,192,0.0,1.0,91,0.00,,,0.00,204,LWC V2.00 B727,2013-08-02 13:58:00,
2013-08-02 08:03:00,58.5,55.9,30.11,South,191,0.0,0.0,91,0.00,,,0.00,148,LWC V2.00 B727,2013-08-02 14:03:00,
2013-08-02 08:08:00,59.0,56.1,30.11,South,191,0.0,3.0,90,0.00,,,0.00,429,LWC V2.00 B727,2013-08-02 14:08:00,
2013-08-02 08:13:00,59.6,56.4,30.11,SSW,192,0.0,0.0,89,0.00,,,0.00,417,LWC V2.00 B727,2013-08-02 14:13:00,
2013-08-02 08:18:00,60.2,56.0,30.11,SSW,192,0.0,0.0,86,0.00,,,0.00,411,LWC V2.00 B727,2013-08-02 14:18:00,
2013-08-02 08:23:00,61.3,56.7,30.12,South,191,0.0,1.0,85,0.00,,,0.00,425,LWC V2.00 B727,2013-08-02 14:23:00,
2013-08-02 08:28:00,62.3,57.1,30.11,South,187,0.0,0.0,83,0.00,,,0.00,424,LWC V2.00 B727,2013-08-02 14:28:00,
2013-08-02 08:33:00,63.5,57.2,30.11,South,178,0.0,0.0,80,0.00,,,0.00,434,LWC V2.00 B727,2013-08-02 14:33:00,
2013-08-02 08:38:00,64.7,57.0,30.10,South,178,2.0,3.0,76,0.00,,,0.00,452,LWC V2.00 B727,2013-08-02 14:38:00,
2013-08-02 08:43:00,65.6,55.9,30.10,SW,219,1.0,7.0,71,0.00,,,0.00,469,LWC V2.00 B727,2013-08-02 14:43:00,
2013-08-02 08:48:00,66.3,56.6,30.10,South,173,1.0,4.0,71,0.00,,,0.00,487,LWC V2.00 B727,2013-08-02 14:48:00,
2013-08-02 08:53:00,66.8,56.7,30.09,SSW,204,0.0,2.0,70,0.00,,,0.00,503,LWC V2.00 B727,2013-08-02 14:53:00,
2013-08-02 08:58:00,67.4,56.9,30.09,SSW,199,1.0,2.0,69,0.00,,,0.00,519,LWC V2.00 B727,2013-08-02 14:58:00,
2013-08-02 09:03:00,67.9,56.5,30.09,South,190,0.0,1.0,67,0.00,,,0.00,533,LWC V2.00 B727,2013-08-02 15:03:00,
2013-08-02 09:08:00,68.2,56.4,30.09,NW,312,3.0,4.0,66,0.00,,,0.00,550,LWC V2.00 B727,2013-08-02 15:08:00,
2013-08-02 09:13:00,68.5,55.8,30.09,WSW,244,2.0,4.0,64,0.00,,,0.00,578,LWC V2.00 B727,2013-08-02 15:13:00,
2013-08-02 09:18:00,68.9,54.9,30.10,North,350,0.0,3.0,61,0.00,,,0.00,584,LWC V2.00 B727,2013-08-02 15:18:00,
2013-08-02 09:23:00,69.2,55.2,30.09,North,355,1.0,2.0,61,0.00,,,0.00,589,LWC V2.00 B727,2013-08-02 15:23:00,
2013-08-02 09:28:00,69.6,55.1,30.09,NW,323,1.0,2.0,60,0.00,,,0.00,605,LWC V2.00 B727,2013-08-02 15:28:00,
2013-08-02 09:33:00,70.0,55.9,30.09,NNE,13,2.0,3.0,61,0.00,,,0.00,619,LWC V2.00 B727,2013-08-02 15:33:00,
2013-08-02 09:38:00,70.2,53.3,30.10,North,0,1.0,4.0,55,0.00,,,0.00,631,LWC V2.00 B727,2013-08-02 15:38:00,
2013-08-02 09:43:00,70.4,54.9,30.10,North,355,0.0,0.0,58,0.00,,,0.00,647,LWC V2.00 B727,2013-08-02 15:43:00,
2013-08-02 09:48:00,70.9,55.8,30.10,NNW,341,0.0,3.0,59,0.00,,,0.00,663,LWC V2.00 B727,2013-08-02 15:48:00,
2013-08-02 09:53:00,71.3,56.2,30.10,WSW,245,1.0,5.0,59,0.00,,,0.00,682,LWC V2.00 B727,2013-08-02 15:53:00,
2013-08-02 09:58:00,71.8,56.2,30.10,SW,226,5.0,7.0,58,0.00,,,0.00,689,LWC V2.00 B727,2013-08-02 15:58:00,
2013-08-02 10:03:00,72.3,55.2,30.10,SW,227,2.0,6.0,55,0.00,,,0.00,705,LWC V2.00 B727,2013-08-02 16:03:00,
2013-08-02 10:08:00,72.7,55.6,30.10,WSW,241,0.0,4.0,55,0.00,,,0.00,714,LWC V2.00 B727,2013-08-02 16:08:00,
2013-08-02 10:13:00,73.0,55.4,30.10,WSW,242,3.0,5.0,54,0.00,,,0.00,731,LWC V2.00 B727,2013-08-02 16:13:00,
2013-08-02 10:18:00,73.2,55.5,30.10,North,0,4.0,7.0,54,0.00,,,0.00,751,LWC V2.00 B727,2013-08-02 16:18:00,
2013-08-02 10:23:00,73.4,56.2,30.10,North,350,4.0,4.0,55,0.00,,,0.00,775,LWC V2.00 B727,2013-08-02 16:23:00,
2013-08-02 10:28:00,73.5,54.8,30.10,North,9,0.0,2.0,52,0.00,,,0.00,784,LWC V2.00 B727,2013-08-02 16:28:00,
2013-08-02 10:33:00,73.7,56.0,30.10,North,350,1.0,6.0,54,0.00,,,0.00,812,LWC V2.00 B727,2013-08-02 16:33:00,
2013-08-02 10:38:00,74.0,55.8,30.10,North,355,2.0,4.0,53,0.00,,,0.00,833,LWC V2.00 B727,2013-08-02 16:38:00,
2013-08-02 10:43:00,74.0,55.8,30.10,NNE,22,4.0,11.0,53,0.00,,,0.00,835,LWC V2.00 B727,2013-08-02 16:43:00,
2013-08-02 10:48:00,73.9,55.1,30.10,North,0,6.0,6.0,52,0.00,,,0.00,835,LWC V2.00 B727,2013-08-02 16:48:00,
2013-08-02 10:53:00,74.2,56.5,30.10,South,187,0.0,4.0,54,0.00,,,0.00,826,LWC V2.00 B727,2013-08-02 16:53:00,
2013-08-02 10:58:00,74.7,56.4,30.10,NW,326,3.0,5.0,53,0.00,,,0.00,860,LWC V2.00 B727,2013-08-02 16:58:00,
2013-08-02 11:03:00,75.3,55.9,30.11,SW,229,3.0,6.0,51,0.00,,,0.00,879,LWC V2.00 B727,2013-08-02 17:03:00,
2013-08-02 11:08:00,75.7,56.8,30.10,North,349,7.0,8.0,52,0.00,,,0.00,782,LWC V2.00 B727,2013-08-02 17:08:00,
2013-08-02 11:13:00,75.1,56.3,30.10,North,355,2.0,3.0,52,0.00,,,0.00,858,LWC V2.00 B727,2013-08-02 17:13:00,
2013-08-02 11:18:00,75.1,55.7,30.10,NNE,21,5.0,11.0,51,0.00,,,0.00,882,LWC V2.00 B727,2013-08-02 17:18:00,
2013-08-02 11:23:00,74.8,55.4,30.10,SW,219,2.0,6.0,51,0.00,,,0.00,925,LWC V2.00 B727,2013-08-02 17:23:00,
2013-08-02 11:29:00,75.2,54.7,30.10,WSW,250,0.0,6.0,49,0.00,,,0.00,886,LWC V2.00 B727,2013-08-02 17:29:00,
2013-08-02 11:34:00,76.0,56.0,30.10,SW,229,0.0,5.0,50,0.00,,,0.00,895,LWC V2.00 B727,2013-08-02 17:34:00,
2013-08-02 11:39:00,76.6,55.4,30.10,WNW,295,2.0,7.0,48,0.00,,,0.00,919,LWC V2.00 B727,2013-08-02 17:39:00,
2013-08-02 11:44:00,76.9,55.7,30.10,WSW,243,2.0,5.0,48,0.00,,,0.00,928,LWC V2.00 B727,2013-08-02 17:44:00,
2013-08-02 11:49:00,77.7,55.2,30.10,NNW,348,0.0,4.0,46,0.00,,,0.00,946,LWC V2.00 B727,2013-08-02 17:49:00,
2013-08-02 11:54:00,78.6,55.5,30.10,SW,222,4.0,10.0,45,0.00,,,0.00,1002,LWC V2.00 B727,2013-08-02 17:54:00,
2013-08-02 11:59:00,78.9,54.5,30.09,SSW,213,3.0,8.0,43,0.00,,,0.00,1013,LWC V2.00 B727,2013-08-02 17:59:00,
2013-08-02 12:04:00,78.8,56.2,30.09,North,355,2.0,3.0,46,0.00,,,0.00,991,LWC V2.00 B727,2013-08-02 18:04:00,
2013-08-02 12:09:00,78.7,54.9,30.09,NNE,17,5.0,5.0,44,0.00,,,0.00,246,LWC V2.00 B727,2013-08-02 18:09:00,
2013-08-02 12:14:00,77.9,54.8,30.09,NNW,342,0.0,4.0,45,0.00,,,0.00,1037,LWC V2.00 B727,2013-08-02 18:14:00,
2013-08-02 12:19:00,78.2,56.9,30.09,West,274,1.0,2.0,48,0.00,,,0.00,1032,LWC V2.00 B727,2013-08-02 18:19:00,
2013-08-02 12:24:00,78.5,56.0,30.08,SW,217,0.0,3.0,46,0.00,,,0.00,1005,LWC V2.00 B727,2013-08-02 18:24:00,
2013-08-02 12:29:00,78.9,56.3,30.08,West,262,4.0,5.0,46,0.00,,,0.00,926,LWC V2.00 B727,2013-08-02 18:29:00,
2013-08-02 12:34:00,79.1,54.7,30.08,NE,42,1.0,8.0,43,0.00,,,0.00,1060,LWC V2.00 B727,2013-08-02 18:34:00,
2013-08-02 12:39:00,78.3,56.4,30.08,NNE,33,0.0,1.0,47,0.00,,,0.00,1109,LWC V2.00 B727,2013-08-02 18:39:00,
2013-08-02 12:44:00,77.7,54.6,30.08,North,0,2.0,5.0,45,0.00,,,0.00,178,LWC V2.00 B727,2013-08-02 18:44:00,
2013-08-02 12:49:00,77.6,55.2,30.07,NNW,342,0.0,2.0,46,0.00,,,0.00,1083,LWC V2.00 B727,2013-08-02 18:49:00,
2013-08-02 12:54:00,78.0,54.9,30.07,SW,236,3.0,8.0,45,0.00,,,0.00,209,LWC V2.00 B727,2013-08-02 18:54:00,
2013-08-02 12:59:00,77.5,54.5,30.07,North,0,5.0,5.0,45,0.00,,,0.00,311,LWC V2.00 B727,2013-08-02 18:59:00,
2013-08-02 13:04:00,77.0,55.2,30.07,North,351,0.0,3.0,47,0.00,,,0.00,1037,LWC V2.00 B727,2013-08-02 19:04:00,
2013-08-02 13:09:00,77.4,54.4,30.06,NNW,344,3.0,7.0,45,0.00,,,0.00,1009,LWC V2.00 B727,2013-08-02 19:09:00,
2013-08-02 13:14:00,77.7,55.2,30.06,NNW,346,1.0,8.0,46,0.00,,,0.00,243,LWC V2.00 B727,2013-08-02 19:14:00,
2013-08-02 13:19:00,77.6,54.6,30.06,North,351,3.0,5.0,45,0.00,,,0.00,578,LWC V2.00 B727,2013-08-02 19:19:00,
2013-08-02 13:24:00,78.1,54.4,30.06,North,5,5.0,9.0,44,0.00,,,0.00,1146,LWC V2.00 B727,2013-08-02 19:24:00,
2013-08-02 13:29:00,77.9,52.9,30.06,NW,320,5.0,8.0,42,0.00,,,0.00,207,LWC V2.00 B727,2013-08-02 19:29:00,
2013-08-02 13:34:00,77.5,53.2,30.06,North,9,3.0,3.0,43,0.00,,,0.00,1062,LWC V2.00 B727,2013-08-02 19:34:00,
2013-08-02 13:39:00,78.0,52.4,30.06,NNW,336,0.0,2.0,41,0.00,,,0.00,1027,LWC V2.00 B727,2013-08-02 19:39:00,
2013-08-02 13:44:00,79.5,53.0,30.05,WNW,302,2.0,4.0,40,0.00,,,0.00,1048,LWC V2.00 B727,2013-08-02 19:44:00,
2013-08-02 13:49:00,81.3,53.2,30.05,NNW,333,0.0,4.0,38,0.00,,,0.00,156,LWC V2.00 B727,2013-08-02 19:49:00,
2013-08-02 13:54:00,80.7,53.4,30.05,SSW,209,0.0,4.0,39,0.00,,,0.00,200,LWC V2.00 B727,2013-08-02 19:54:00,
2013-08-02 13:59:00,81.1,53.1,30.04,West,263,2.0,3.0,38,0.00,,,0.00,288,LWC V2.00 B727,2013-08-02 19:59:00,
2013-08-02 14:04:00,80.6,54.0,30.04,North,9,0.0,9.0,40,0.00,,,0.00,311,LWC V2.00 B727,2013-08-02 20:04:00,
2013-08-02 14:09:00,80.7,54.1,30.03,SSW,210,2.0,5.0,40,0.00,,,0.00,752,LWC V2.00 B727,2013-08-02 20:09:00,
2013-08-02 14:14:00,81.4,56.1,30.03,NNW,344,2.0,3.0,42,0.00,,,0.00,497,LWC V2.00 B727,2013-08-02 20:14:00,
2013-08-02 14:19:00,81.0,53.7,30.04,North,351,1.0,2.0,39,0.00,,,0.00,315,LWC V2.00 B727,2013-08-02 20:19:00,
2013-08-02 14:24:00,80.4,53.1,30.04,SW,226,1.0,4.0,39,0.00,,,0.00,297,LWC V2.00 B727,2013-08-02 20:24:00,
2013-08-02 14:29:00,80.0,52.8,30.03,SW,221,3.0,3.0,39,0.00,,,0.00,287,LWC V2.00 B727,2013-08-02 20:29:00,
2013-08-02 14:34:00,79.6,52.4,30.03,SW,223,0.0,2.0,39,0.00,,,0.00,297,LWC V2.00 B727,2013-08-02 20:34:00,
2013-08-02 14:39:00,79.3,52.9,30.03,SW,222,0.0,3.0,40,0.00,,,0.00,279,LWC V2.00 B727,2013-08-02 20:39:00,
2013-08-02 14:44:00,78.7,52.3,30.03,SW,217,0.0,4.0,40,0.00,,,0.00,241,LWC V2.00 B727,2013-08-02 20:44:00,
2013-08-02 14:49:00,78.5,52.8,30.03,SW,221,1.0,2.0,41,0.00,,,0.00,209,LWC V2.00 B727,2013-08-02 20:49:00,
2013-08-02 14:54:00,78.2,52.5,30.02,SW,221,1.0,2.0,41,0.00,,,0.00,193,LWC V2.00 B727,2013-08-02 20:54:00,
2013-08-02 14:59:00,77.9,51.6,30.02,SW,221,3.0,4.0,40,0.00,,,0.00,190,LWC V2.00 B727,2013-08-02 20:59:00,
2013-08-02 15:04:00,77.6,52.0,30.02,WSW,249,1.0,4.0,41,0.00,,,0.00,193,LWC V2.00 B727,2013-08-02 21:04:00,
2013-08-02 15:09:00,77.2,51.7,30.02,SW,233,0.0,3.0,41,0.00,,,0.00,214,LWC V2.00 B727,2013-08-02 21:09:00,
2013-08-02 15:14:00,77.0,52.1,30.02,SW,232,3.0,3.0,42,0.00,,,0.00,244,LWC V2.00 B727,2013-08-02 21:14:00,
2013-08-02 15:19:00,76.8,51.3,30.02,SW,232,3.0,3.0,41,0.00,,,0.00,315,LWC V2.00 B727,2013-08-02 21:19:00,
2013-08-02 15:24:00,76.8,50.6,30.02,SW,236,0.0,4.0,40,0.00,,,0.00,392,LWC V2.00 B727,2013-08-02 21:24:00,
2013-08-02 15:29:00,77.2,52.3,30.02,SW,236,0.0,2.0,42,0.00,,,0.00,526,LWC V2.00 B727,2013-08-02 21:29:00,
2013-08-02 15:34:00,78.4,52.7,30.02,SW,232,0.0,6.0,41,0.00,,,0.00,469,LWC V2.00 B727,2013-08-02 21:34:00,
2013-08-02 15:39:00,78.7,52.3,30.02,North,10,2.0,3.0,40,0.00,,,0.00,536,LWC V2.00 B727,2013-08-02 21:39:00,
2013-08-02 15:44:00,78.8,53.7,30.02,SW,235,3.0,7.0,42,0.00,,,0.00,417,LWC V2.00 B727,2013-08-02 21:44:00,
2013-08-02 15:49:00,78.8,53.1,30.02,WSW,239,4.0,4.0,41,0.00,,,0.00,408,LWC V2.00 B727,2013-08-02 21:49:00,
2013-08-02 15:54:00,79.1,53.4,30.01,WSW,238,3.0,4.0,41,0.00,,,0.00,357,LWC V2.00 B727,2013-08-02 21:54:00,
2013-08-02 15:59:00,79.2,53.4,30.01,SSW,202,4.0,5.0,41,0.00,,,0.00,480,LWC V2.00 B727,2013-08-02 21:59:00,
2013-08-02 16:04:00,79.1,53.4,30.01,SW,232,0.0,3.0,41,0.00,,,0.00,301,LWC V2.00 B727,2013-08-02 22:04:00,
2013-08-02 16:09:00,79.0,52.6,30.00,SW,233,0.0,3.0,40,0.00,,,0.00,276,LWC V2.00 B727,2013-08-02 22:09:00,
2013-08-02 16:14:00,78.7,52.3,30.00,SW,217,3.0,6.0,40,0.00,,,0.00,230,LWC V2.00 B727,2013-08-02 22:14:00,
2013-08-02 16:19:00,78.6,52.9,30.00,SW,226,3.0,5.0,41,0.00,,,0.00,197,LWC V2.00 B727,2013-08-02 22:19:00,
2013-08-02 16:24:00,78.3,52.0,30.00,SW,229,2.0,4.0,40,0.00,,,0.00,181,LWC V2.00 B727,2013-08-02 22:24:00,
2013-08-02 16:29:00,78.0,53.0,30.00,SW,233,0.0,3.0,42,0.00,,,0.00,195,LWC V2.00 B727,2013-08-02 22:29:00,
2013-08-02 16:34:00,77.8,52.2,30.00,WSW,239,0.0,1.0,41,0.00,,,0.00,216,LWC V2.00 B727,2013-08-02 22:34:00,
2013-08-02 16:39:00,77.5,51.9,30.00,WSW,246,0.0,3.0,41,0.00,,,0.00,221,LWC V2.00 B727,2013-08-02 22:39:00,
2013-08-02 16:44:00,77.3,53.0,30.00,NW,310,2.0,4.0,43,0.00,,,0.00,225,LWC V2.00 B727,2013-08-02 22:44:00,
2013-08-02 16:49:00,77.1,52.9,30.00,WSW,237,0.0,4.0,43,0.00,,,0.00,229,LWC V2.00 B727,2013-08-02 22:49:00,
2013-08-02 16:54:00,77.0,52.8,30.00,WSW,252,2.0,3.0,43,0.00,,,0.00,227,LWC V2.00 B727,2013-08-02 22:54:00,
2013-08-02 16:59:00,77.0,52.1,30.00,SW,235,0.0,3.0,42,0.00,,,0.00,239,LWC V2.00 B727,2013-08-02 22:59:00,
2013-08-02 17:04:00,77.0,52.1,30.00,SW,234,1.0,3.0,42,0.00,,,0.00,248,LWC V2.00 B727,2013-08-02 23:04:00,
2013-08-02 17:09:00,77.1,53.5,30.00,SW,235,0.0,1.0,44,0.00,,,0.00,322,LWC V2.00 B727,2013-08-02 23:09:00,
2013-08-02 17:14:00,77.6,53.3,30.00,NW,318,1.0,2.0,43,0.00,,,0.00,353,LWC V2.00 B727,2013-08-02 23:14:00,
2013-08-02 17:19:00,78.1,52.5,30.00,West,268,0.0,3.0,41,0.00,,,0.00,304,LWC V2.00 B727,2013-08-02 23:19:00,
2013-08-02 17:24:00,78.4,53.4,30.00,WSW,257,0.0,1.0,42,0.00,,,0.00,260,LWC V2.00 B727,2013-08-02 23:24:00,
2013-08-02 17:29:00,78.5,52.8,30.01,WSW,256,0.0,0.0,41,0.00,,,0.00,237,LWC V2.00 B727,2013-08-02 23:29:00,
2013-08-02 17:34:00,78.6,53.6,30.01,WNW,296,3.0,4.0,42,0.00,,,0.00,200,LWC V2.00 B727,2013-08-02 23:34:00,
2013-08-02 17:39:00,78.5,54.1,30.01,West,269,0.0,1.0,43,0.00,,,0.00,178,LWC V2.00 B727,2013-08-02 23:39:00,
2013-08-02 17:44:00,78.3,53.3,30.01,North,355,0.0,3.0,42,0.00,,,0.00,183,LWC V2.00 B727,2013-08-02 23:44:00,
2013-08-02 17:49:00,78.0,53.7,30.01,North,355,0.0,1.0,43,0.00,,,0.00,155,LWC V2.00 B727,2013-08-02 23:49:00,
2013-08-02 17:54:00,77.8,54.7,30.01,West,280,2.0,3.0,45,0.00,,,0.00,142,LWC V2.00 B727,2013-08-02 23:54:00,
2013-08-02 17:59:00,77.6,53.9,30.00,West,281,0.0,1.0,44,0.00,,,0.00,123,LWC V2.00 B727,2013-08-02 23:59:00,
2013-08-02 18:04:00,77.4,53.1,30.00,WNW,283,1.0,1.0,43,0.00,,,0.00,107,LWC V2.00 B727,2013-08-03 00:04:00,
2013-08-02 18:09:00,77.2,52.9,30.00,West,281,0.0,1.0,43,0.00,,,0.00,91,LWC V2.00 B727,2013-08-03 00:09:00,
2013-08-02 18:14:00,77.0,52.8,30.00,WNW,282,0.0,1.0,43,0.00,,,0.00,76,LWC V2.00 B727,2013-08-03 00:14:00,
2013-08-02 18:19:00,76.7,53.7,30.00,WNW,282,0.0,0.0,45,0.00,,,0.00,53,LWC V2.00 B727,2013-08-03 00:19:00,
2013-08-02 18:24:00,76.4,54.1,30.00,WNW,282,0.0,0.0,46,0.00,,,0.00,58,LWC V2.00 B727,2013-08-03 00:24:00,
2013-08-02 18:29:00,75.9,52.4,30.00,WNW,282,0.0,1.0,44,0.00,,,0.00,60,LWC V2.00 B727,2013-08-03 00:29:00,
2013-08-02 18:34:00,75.4,52.0,30.00,WNW,282,0.0,0.0,44,0.00,,,0.00,65,LWC V2.00 B727,2013-08-03 00:34:00,
2013-08-02 18:39:00,75.0,52.2,30.00,West,281,0.0,0.0,45,0.00,,,0.00,70,LWC V2.00 B727,2013-08-03 00:39:00,
2013-08-02 18:44:00,74.6,52.4,30.00,West,281,0.0,0.0,46,0.00,,,0.00,76,LWC V2.00 B727,2013-08-03 00:44:00,
2013-08-02 18:49:00,74.3,52.2,30.01,West,281,0.0,0.0,46,0.00,,,0.00,83,LWC V2.00 B727,2013-08-03 00:49:00,
2013-08-02 18:54:00,74.0,52.5,30.01,WNW,282,0.0,1.0,47,0.00,,,0.00,81,LWC V2.00 B727,2013-08-03 00:54:00,
2013-08-02 18:59:00,73.8,51.7,30.01,WNW,282,0.0,2.0,46,0.00,,,0.00,72,LWC V2.00 B727,2013-08-03 00:59:00,
2013-08-02 19:04:00,73.5,52.0,30.01,West,280,1.0,3.0,47,0.00,,,0.00,65,LWC V2.00 B727,2013-08-03 01:04:00,
2013-08-02 19:09:00,73.3,51.8,30.01,West,281,0.0,1.0,47,0.00,,,0.00,56,LWC V2.00 B727,2013-08-03 01:09:00,
2013-08-02 19:14:00,73.1,51.7,30.01,West,268,0.0,4.0,47,0.00,,,0.00,49,LWC V2.00 B727,2013-08-03 01:14:00,
2013-08-02 19:19:00,73.0,51.6,30.01,West,268,0.0,2.0,47,0.00,,,0.00,42,LWC V2.00 B727,2013-08-03 01:19:00,
2013-08-02 19:24:00,72.8,51.4,30.01,West,269,0.0,1.0,47,0.00,,,0.00,35,LWC V2.00 B727,2013-08-03 01:24:00,
2013-08-02 19:29:00,72.6,51.2,30.01,West,268,1.0,2.0,47,0.00,,,0.00,28,LWC V2.00 B727,2013-08-03 01:29:00,
2013-08-02 19:34:00,72.3,50.9,30.02,West,268,0.0,1.0,47,0.00,,,0.00,25,LWC V2.00 B727,2013-08-03 01:34:00,
2013-08-02 19:39:00,72.1,51.3,30.02,West,268,0.0,1.0,48,0.00,,,0.00,21,LWC V2.00 B727,2013-08-03 01:39:00,
2013-08-02 19:44:00,71.8,51.0,30.02,West,267,0.0,1.0,48,0.00,,,0.00,19,LWC V2.00 B727,2013-08-03 01:44:00,
2013-08-02 19:49:00,71.5,51.9,30.02,West,268,0.0,0.0,50,0.00,,,0.00,16,LWC V2.00 B727,2013-08-03 01:49:00,
2013-08-02 19:54:00,71.2,52.7,30.03,West,267,0.0,0.0,52,0.00,,,0.00,12,LWC V2.00 B727,2013-08-03 01:54:00,
2013-08-02 19:59:00,70.7,52.7,30.03,West,267,0.0,0.0,53,0.00,,,0.00,7,LWC V2.00 B727,2013-08-03 01:59:00,
2013-08-02 20:04:00,70.1,52.2,30.03,West,268,0.0,0.0,53,0.00,,,0.00,0,LWC V2.00 B727,2013-08-03 02:04:00,
2013-08-02 20:09:00,69.3,51.9,30.03,West,267,0.0,0.0,54,0.00,,,0.00,0,LWC V2.00 B727,2013-08-03 02:09:00,
2013-08-02 20:14:00,68.5,51.7,30.03,West,267,0.0,0.0,55,0.00,,,0.00,0,LWC V2.00 B727,2013-08-03 02:14:00,
2013-08-02 20:19:00,68.0,51.7,30.04,West,267,0.0,0.0,56,0.00,,,0.00,0,LWC V2.00 B727,2013-08-03 02:19:00,
2013-08-02 20:24:00,67.8,51.5,30.04,West,268,0.0,2.0,56,0.00,,,0.00,0,LWC V2.00 B727,2013-08-03 02:24:00,
2013-08-02 20:29:00,67.6,51.3,30.04,West,268,0.0,2.0,56,0.00,,,0.00,0,LWC V2.00 B727,2013-08-03 02:29:00,
2013-08-02 20:34:00,67.4,51.1,30.04,West,267,0.0,0.0,56,0.00,,,0.00,0,LWC V2.00 B727,2013-08-03 02:34:00,
2013-08-02 20:39:00,67.4,51.6,30.04,West,268,0.0,0.0,57,0.00,,,0.00,0,LWC V2.00 B727,2013-08-03 02:39:00,
2013-08-02 20:44:00,67.3,51.1,30.04,NNW,344,0.0,2.0,56,0.00,,,0.00,0,LWC V2.00 B727,2013-08-03 02:44:00,
2013-08-02 20:49:00,67.2,51.0,30.05,NNW,344,0.0,0.0,56,0.00,,,0.00,0,LWC V2.00 B727,2013-08-03 02:49:00,
2013-08-02 20:54:00,67.2,50.5,30.05,NNW,344,0.0,2.0,55,0.00,,,0.00,0,LWC V2.00 B727,2013-08-03 02:54:00,
2013-08-02 20:59:00,67.1,50.4,30.05,NNW,345,0.0,2.0,55,0.00,,,0.00,0,LWC V2.00 B727,2013-08-03 02:59:00,
2013-08-02 21:04:00,67.1,50.4,30.05,NNW,345,0.0,1.0,55,0.00,,,0.00,0,LWC V2.00 B727,2013-08-03 03:04:00,
2013-08-02 21:09:00,66.9,50.2,30.05,NE,38,0.0,2.0,55,0.00,,,0.00,0,LWC V2.00 B727,2013-08-03 03:09:00,
2013-08-02 21:14:00,66.8,50.1,30.06,NE,38,1.0,1.0,55,0.00,,,0.00,0,LWC V2.00 B727,2013-08-03 03:14:00,
2013-08-02 21:19:00,66.8,50.1,30.06,NE,38,0.0,1.0,55,0.00,,,0.00,0,LWC V2.00 B727,2013-08-03 03:19:00,
2013-08-02 21:24:00,66.8,50.6,30.06,NE,37,0.0,0.0,56,0.00,,,0.00,0,LWC V2.00 B727,2013-08-03 03:24:00,
2013-08-02 21:29:00,66.8,52.5,30.07,NE,37,0.0,0.0,60,0.00,,,0.00,0,LWC V2.00 B727,2013-08-03 03:29:00,
2013-08-02 21:34:00,66.6,54.9,30.07,NE,37,0.0,0.0,66,0.00,,,0.00,0,LWC V2.00 B727,2013-08-03 03:34:00,
2013-08-02 21:39:00,66.1,53.6,30.07,ENE,64,0.0,1.0,64,0.00,,,0.00,0,LWC V2.00 B727,2013-08-03 03:39:00,
2013-08-02 21:44:00,64.9,52.8,30.08,NNE,23,1.0,3.0,65,0.00,,,0.00,0,LWC V2.00 B727,2013-08-03 03:44:00,
2013-08-02 21:49:00,63.6,52.8,30.08,NNE,28,5.0,11.0,68,0.00,,,0.00,0,LWC V2.00 B727,2013-08-03 03:49:00,
2013-08-02 21:54:00,62.5,52.6,30.09,NE,49,5.0,7.0,70,0.00,,,0.00,0,LWC V2.00 B727,2013-08-03 03:54:00,
2013-08-02 21:59:00,61.6,52.5,30.09,NNE,24,2.0,5.0,72,0.63,,,0.01,0,LWC V2.00 B727,2013-08-03 03:59:00,
2013-08-02 22:01:00,61.3,52.6,30.09,ENE,59,3.0,5.0,73,0.76,,,0.04,0,LWC V2.00 B727,2013-08-03 04:01:00,
2013-08-02 22:06:00,60.4,52.4,30.10,ENE,67,0.0,3.0,75,0.10,,,0.04,0,LWC V2.00 B727,2013-08-03 04:06:00,
2013-08-02 22:11:00,59.8,52.6,30.10,ESE,105,1.0,2.0,77,0.07,,,0.05,0,LWC V2.00 B727,2013-08-03 04:11:00,
2013-08-02 22:16:00,59.2,52.7,30.10,NNW,345,3.0,3.0,79,0.07,,,0.05,0,LWC V2.00 B727,2013-08-03 04:16:00,
2013-08-02 22:21:00,59.0,52.5,30.10,NE,34,0.0,2.0,79,0.05,,,0.05,0,LWC V2.00 B727,2013-08-03 04:21:00,
2013-08-02 22:26:00,58.7,52.9,30.11,SE,133,0.0,1.0,81,0.04,,,0.05,0,LWC V2.00 B727,2013-08-03 04:26:00,
2013-08-02 22:31:00,58.6,53.1,30.11,SE,132,0.0,0.0,82,1.15,,,0.12,0,LWC V2.00 B727,2013-08-03 04:31:00,
2013-08-02 22:36:00,58.2,53.1,30.11,SE,134,1.0,1.0,83,1.06,,,0.22,0,LWC V2.00 B727,2013-08-03 04:36:00,
2013-08-02 22:41:00,57.8,52.7,30.11,ESE,114,0.0,1.0,83,1.13,,,0.31,0,LWC V2.00 B727,2013-08-03 04:41:00,
2013-08-02 22:46:00,57.5,52.7,30.11,East,100,2.0,2.0,84,0.16,,,0.32,0,LWC V2.00 B727,2013-08-03 04:46:00,
2013-08-02 22:51:00,57.3,52.8,30.12,SSE,157,1.0,2.0,85,0.07,,,0.32,0,LWC V2.00 B727,2013-08-03 04:51:00,
2013-08-02 22:56:00,57.1,52.6,30.13,SW,229,2.0,7.0,85,0.04,,,0.32,0,LWC V2.00 B727,2013-08-03 04:56:00,
2013-08-02 23:01:00,57.1,52.6,30.14,SW,230,0.0,1.0,85,0.04,,,0.33,0,LWC V2.00 B727,2013-08-03 05:01:00,
2013-08-02 23:06:00,57.3,53.1,30.14,SW,221,0.0,5.0,86,0.04,,,0.33,0,LWC V2.00 B727,2013-08-03 05:06:00,
2013-08-02 23:11:00,57.5,53.7,30.14,WSW,242,3.0,6.0,87,0.05,,,0.34,0,LWC V2.00 B727,2013-08-03 05:11:00,
2013-08-02 23:16:00,57.5,53.7,30.15,SW,221,8.0,8.0,87,0.05,,,0.34,0,LWC V2.00 B727,2013-08-03 05:16:00,
2013-08-02 23:21:00,57.5,53.7,30.15,SSW,211,2.0,5.0,87,0.05,,,0.34,0,LWC V2.00 B727,2013-08-03 05:21:00,
2013-08-02 23:26:00,57.5,53.7,30.15,SW,215,0.0,1.0,87,0.04,,,0.34,0,LWC V2.00 B727,2013-08-03 05:26:00,
2013-08-02 23:31:00,57.5,53.7,30.15,SW,225,0.0,4.0,87,0.00,,,0.35,0,LWC V2.00 B727,2013-08-03 05:31:00,
2013-08-02 23:36:00,57.4,53.6,30.16,SW,224,0.0,2.0,87,0.08,,,0.36,0,LWC V2.00 B727,2013-08-03 05:36:00,
2013-08-02 23:41:00,57.3,53.5,30.15,SW,224,0.0,0.0,87,0.24,,,0.38,0,LWC V2.00 B727,2013-08-03 05:41:00,
2013-08-02 23:46:00,57.3,53.8,30.16,SW,224,0.0,0.0,88,0.19,,,0.39,0,LWC V2.00 B727,2013-08-03 05:46:00,
2013-08-02 23:51:00,57.2,53.7,30.16,SW,223,0.0,0.0,88,0.11,,,0.40,0,LWC V2.00 B727,2013-08-03 05:51:00,
2013-08-02 23:56:00,57.2,53.7,30.16,SW,224,0.0,1.0,88,0.23,,,0.42,0,LWC V2.00 B727,2013-08-03 05:56:00,